844  
ASUS41 KPHI 112312  
RWRPHI  
 
REGIONAL WEATHER ROUNDUP  
NATIONAL WEATHER SERVICE MOUNT HOLLY NJ  
600 PM EST TUE DEC 11 2018  
 
NOTE: "FAIR" INDICATES FEW OR NO CLOUDS BELOW 12,000 FEET WITH NO  
SIGNIFICANT WEATHER AND/OR S TO VISIBILITY
.  
 
* = STATION DOES NOT REPORT PRECIPITATION (E.G. RAIN, SNOW, ETC.)  
OR FOG.
 
 
NJZ015>026-120000-  
SOUTHERN NEW JERSEY  
 
CITY SKY/WX TMP DP RH WIND PRES REMARKS
 
POMONA FAIR 36 24 62 W6 30.00R WCI 31  
WILDWOOD* FAIR 34 27 75 W3 30.02S  
MILLVILLE FAIR 24 20 84 CALM 30.01R  
WRIGHTSTOWN CLEAR 31 20 66 SW6 29.96R WCI 25  
MOUNT HOLLY FAIR 29 20 69 SW5 30.00R WCI 24  
TRENTON FAIR 36 21 54 W3 29.98R  
 

 
NJZ001>014-120000-  
NORTHERN NEW JERSEY  
 
CITY SKY/WX TMP DP RH WIND PRES REMARKS
 
SUSSEX FAIR 28 20 71 CALM 29.95R  
ANDOVER* N/A 26 21 81 CALM 29.95R  
MORRISTOWN CLEAR 28 23 80 CALM 29.97R  
NEWARK FAIR 37 21 52 W10 29.97R WCI 30  
TETERBORO FAIR 37 22 54 W7 29.96R WCI 32  
CALDWELL FAIR 31 20 63 CALM 29.97R  
SOMERVILLE FAIR 28 20 71 CALM 29.96R  
ALLAIRE* FAIR 35 30 82 SW6 29.98S WCI 30  
TOMS RIVER* FAIR 26 22 84 CALM 29.99R  
 

 
PAZ043-044-047-054-055-060>062-066>071-120000-  
EASTERN PENNSYLVANIA  
 
CITY SKY/WX TMP DP RH WIND PRES REMARKS
 
PHILADELPHIA FAIR 38 20 48 W9 30.02R WCI 31  
NORTH PHILA FAIR 36 20 52 W7 30.01R WCI 30  
BLUE BELL* FAIR 32 23 69 CALM 30.01R  
DOYLESTOWN FAIR 33 20 58 SW5 29.97R WCI 29  
QUAKERTOWN* CLEAR 28 21 74 CALM 29.98R  
PERKASIE* FAIR 30 21 69 W3 29.98R  
POTTSTOWN FAIR 31 20 63 W3 30.01R  
LANCASTER FAIR 33 22 63 CALM 29.98S  
COATESVILLE FAIR 30 21 69 CALM 29.99S  
READING FAIR 32 22 66 CALM 29.98S  
ALLENTOWN FAIR 31 20 63 W6 29.98R WCI 25  
MOUNT POCONO FAIR 25 18 74 W13 29.89R WCI 14  
HAZLETON FAIR 23 14 68 CALM 29.95S  
WILKES BARRE CLOUDY 29 19 66 SW8 29.95S WCI 21  
 

 
DEZALL-MDZ008-012-015-019-020-120000-  
DELAWARE AND EASTERN MARYLAND  
 
CITY SKY/WX TMP DP RH WIND PRES REMARKS
 
WILMINGTON FAIR 35 20 54 SW3 30.02R  
DOVER FAIR 34 21 60 CALM 30.02R  
GEORGETOWN FAIR 38 21 50 CALM 30.03S  
EASTON CLEAR 36 25 64 S3 30.07R  
ABERDEEN CLEAR 28 21 74 CALM 30.01S  
PATUXENT FAIR 39 27 62 SW6 30.05 WCI 35  
OCEAN CITY FAIR 36 21 54 NW3 30.04R  
WALLOPS ISLAND FAIR 37 21 52 W6 30.06R WCI 32  
CAMBRIDGE CLEAR 32 25 74 CALM 30.04S  
SALISBURY FAIR 33 24 69 SW3 30.04R  
 

 
PAZ001-021-NYZ056-072-MDZ011-DCZ001-120000-  
OTHER NEARBY LOCATIONS  
 
CITY SKY/WX TMP DP RH WIND PRES REMARKS
 
HARRISBURG FAIR 28 20 71 CALM 29.98S  
STATE COLLEGE CLEAR 30 19 64 W6 29.96R WCI 24  
WILLIAMSPORT MOCLDY 28 21 75 E3 29.98S  
BINGHAMTON CLOUDY 25 18 74 CALM 29.91S  
NEW YORK CITY FAIR 38 23 55 MISG 29.98S  
BALTIMORE FAIR 33 18 53 S5 30.00S WCI 29  
WASHINGTON DC FAIR 40 23 50 S7 30.04R  
 

 
 
 
CLICK HERE TO GO TO PREVIOUS BULLETINS.

The Nexlab PA Page
The Nexlab NJ Page
The Nexlab DE Page
The Nexlab MD Page Main Text Page